| time (UTC) | temp F | wind direction | speed MPH | gust MPH | rain 1hr in | rain 24hr in | rain mn in | humidity % | barometer mb |
| 20260507184533 | 60 | 114 | 2.0 | 7.0 | 0.00 | 0.12 | 0.04 | 58 | 1007.1 |
| 20260507183030 | 60 | 94 | 2.0 | 6.0 | 0.00 | 0.12 | 0.04 | 57 | 1007.2 |
| 20260507181531 | 60 | 82 | 1.0 | 8.0 | 0.00 | 0.12 | 0.04 | 60 | 1007.3 |
| 20260507180030 | 61 | 87 | 3.0 | 7.0 | 0.00 | 0.12 | 0.04 | 56 | 1007.6 |
| 20260507174539 | 62 | 101 | 3.0 | 7.0 | 0.00 | 0.12 | 0.04 | 55 | 1007.7 |
| 20260507173030 | 62 | 34 | 1.0 | 8.0 | 0.00 | 0.12 | 0.04 | 59 | 1008.0 |
| 20260507171528 | 61 | 121 | 4.0 | 8.0 | 0.00 | 0.12 | 0.04 | 58 | 1008.2 |
| 20260507170039 | 61 | 315 | 3.0 | 9.0 | 0.00 | 0.12 | 0.04 | 57 | 1008.7 |
| 20260507164525 | 59 | 76 | 3.0 | 7.0 | 0.00 | 0.12 | 0.04 | 56 | 1009.0 |
| 20260507163022 | 60 | 344 | 3.0 | 7.0 | 0.00 | 0.12 | 0.04 | 60 | 1009.2 |
| 20260507161523 | 58 | 329 | 3.0 | 10.0 | 0.00 | 0.12 | 0.04 | 58 | 1009.3 |
| 20260507160021 | 57 | 284 | 3.0 | 7.0 | 0.00 | 0.12 | 0.04 | 61 | 1009.4 |
| 20260507154521 | 56 | 44 | 1.0 | 5.0 | 0.00 | 0.12 | 0.04 | 65 | 1009.6 |
| 20260507153021 | 56 | 46 | 3.0 | 8.0 | 0.00 | 0.12 | 0.04 | 61 | 1009.8 |
| 20260507151519 | 56 | 355 | 4.0 | 8.0 | 0.00 | 0.13 | 0.04 | 61 | 1009.8 |
| 20260507150018 | 56 | 44 | 2.0 | 8.0 | 0.00 | 0.13 | 0.04 | 69 | 1010.2 |
| 20260507144517 | 55 | 336 | 5.0 | 8.0 | 0.00 | 0.13 | 0.04 | 62 | 1010.3 |
| 20260507143016 | 54 | 40 | 2.0 | 7.0 | 0.00 | 0.13 | 0.04 | 68 | 1010.4 |
| 20260507141513 | 53 | 12 | 5.0 | 11.0 | 0.00 | 0.16 | 0.04 | 67 | 1010.4 |
| 20260507140012 | 53 | 329 | 2.0 | 7.0 | 0.00 | 0.16 | 0.04 | 72 | 1010.8 |
| 20260507134512 | 53 | 27 | 3.0 | 7.0 | 0.00 | 0.16 | 0.04 | 70 | 1010.9 |
| 20260507133009 | 53 | 5 | 1.0 | 4.0 | 0.00 | 0.16 | 0.04 | 69 | 1010.9 |
| 20260507131513 | 52 | 323 | 1.0 | 5.0 | 0.00 | 0.28 | 0.04 | 71 | 1010.8 |
| 20260507130009 | 52 | 342 | 2.0 | 6.0 | 0.00 | 0.28 | 0.04 | 69 | 1010.8 |
| 20260507124510 | 52 | 344 | 2.0 | 5.0 | 0.00 | 0.28 | 0.04 | 69 | 1010.8 |
| 20260507123002 | 52 | 282 | 1.0 | 4.0 | 0.00 | 0.28 | 0.04 | 70 | 1010.8 |
| 20260507121502 | 52 | 42 | 0.0 | 5.0 | 0.00 | 0.33 | 0.04 | 74 | 1010.7 |
| 20260507120003 | 52 | 30 | 1.0 | 5.0 | 0.00 | 0.33 | 0.04 | 75 | 1010.8 |
| 20260507114615 | 52 | 329 | 1.0 | 5.0 | 0.00 | 0.33 | 0.04 | 77 | 1010.3 |
| 20260507113102 | 52 | 28 | 1.0 | 5.0 | 0.00 | 0.33 | 0.04 | 77 | 1010.1 |
| 20260507111604 | 52 | 42 | 1.0 | 4.0 | 0.00 | 0.35 | 0.04 | 78 | 1010.0 |
| 20260507110106 | 52 | 36 | 2.0 | 5.0 | 0.00 | 0.35 | 0.04 | 78 | 1010.1 |
| 20260507104554 | 53 | 21 | 0.0 | 2.0 | 0.00 | 0.35 | 0.04 | 81 | 1009.7 |
| 20260507103054 | 53 | 19 | 0.0 | 4.0 | 0.00 | 0.35 | 0.04 | 81 | 1009.7 |
| 20260507101559 | 53 | 355 | 1.0 | 3.0 | 0.00 | 0.35 | 0.04 | 84 | 1009.7 |
| 20260507100049 | 53 | 350 | 0.0 | 2.0 | 0.00 | 0.35 | 0.04 | 85 | 1009.5 |
| 20260507094548 | 53 | 338 | 0.0 | 3.0 | 0.00 | 0.35 | 0.04 | 86 | 1009.2 |
| 20260507093053 | 53 | 325 | 0.0 | 2.0 | 0.00 | 0.35 | 0.04 | 87 | 1009.4 |
| 20260507091549 | 53 | 325 | 0.0 | 2.0 | 0.00 | 0.35 | 0.04 | 87 | 1008.9 |
| 20260507090043 | 53 | 325 | 0.0 | 3.0 | 0.00 | 0.35 | 0.04 | 87 | 1009.1 |
| 20260507084543 | 53 | 323 | 0.0 | 2.0 | 0.00 | 0.35 | 0.04 | 87 | 1009.2 |
| 20260507083042 | 53 | 323 | 0.0 | 2.0 | 0.00 | 0.35 | 0.04 | 87 | 1009.1 |
| 20260507081547 | 53 | 321 | 3.0 | 6.0 | 0.00 | 0.35 | 0.04 | 87 | 1009.0 |
| 20260507080038 | 53 | 345 | 0.0 | 2.0 | 0.00 | 0.35 | 0.04 | 88 | 1008.8 |
| 20260507074554 | 53 | 344 | 2.0 | 4.0 | 0.00 | 0.35 | 0.04 | 88 | 1008.5 |
| 20260507073037 | 53 | 325 | 2.0 | 6.0 | 0.00 | 0.35 | 0.04 | 88 | 1008.5 |
| 20260507071534 | 53 | 341 | 1.0 | 5.0 | 0.00 | 0.35 | 0.04 | 88 | 1008.5 |
| 20260507070033 | 53 | 350 | 1.0 | 3.0 | 0.00 | 0.35 | 0.04 | 89 | 1008.6 |
| 20260507064532 | 53 | 355 | 0.0 | 7.0 | 0.00 | 0.35 | 0.04 | 89 | 1008.5 |
| 20260507063032 | 54 | 28 | 1.0 | 6.0 | 0.00 | 0.35 | 0.04 | 89 | 1008.6 |
| 20260507061530 | 54 | 355 | 2.0 | 4.0 | 0.00 | 0.35 | 0.04 | 89 | 1009.1 |
| 20260507060027 | 54 | 319 | 1.0 | 4.0 | 0.00 | 0.35 | 0.04 | 90 | 1008.5 |
| 20260507054524 | 55 | 42 | 2.0 | 6.0 | 0.00 | 0.35 | 0.04 | 90 | 1008.6 |
| 20260507053023 | 55 | 5 | 3.0 | 9.0 | 0.00 | 0.35 | 0.04 | 89 | 1008.6 |
| 20260507051518 | 56 | 315 | 1.0 | 6.0 | 0.00 | 0.35 | 0.04 | 89 | 1008.7 |
| 20260507050025 | 56 | 344 | 2.0 | 9.0 | 0.00 | 0.35 | 0.04 | 88 | 1008.2 |
| 20260507044514 | 57 | 56 | 0.0 | 4.0 | 0.00 | 0.35 | 0.04 | 89 | 1008.4 |
| 20260507043013 | 57 | 327 | 0.0 | 6.0 | 0.00 | 0.35 | 0.04 | 87 | 1008.5 |
| 20260507041510 | 57 | 345 | 2.0 | 4.0 | 0.00 | 0.35 | 0.04 | 87 | 1008.3 |
| 20260507040009 | 57 | 340 | 2.0 | 9.0 | 0.00 | 0.35 | 0.04 | 86 | 1008.5 |
| 20260507034506 | 57 | 317 | 3.0 | 8.0 | 0.00 | 0.35 | 0.04 | 88 | 1008.2 |
| 20260507033012 | 57 | 342 | 1.0 | 5.0 | 0.03 | 0.35 | 0.04 | 89 | 1007.9 |
| 20260507031502 | 57 | 321 | 3.0 | 10.0 | 0.04 | 0.35 | 0.04 | 91 | 1007.9 |
| 20260507030000 | 57 | 338 | 3.0 | 9.0 | 0.04 | 0.35 | 0.04 | 91 | 1008.3 |
| 20260507024558 | 58 | 325 | 1.0 | 4.0 | 0.04 | 0.35 | 0.04 | 90 | 1007.6 |
| 20260507023104 | 60 | 323 | 4.0 | 9.0 | 0.01 | 0.32 | 0.01 | 87 | 1007.3 |
| 20260507021522 | 61 | 324 | 1.0 | 6.0 | 0.00 | 0.31 | 0.00 | 89 | 1007.6 |
| 20260507020020 | 61 | 350 | 1.0 | 5.0 | 0.00 | 0.31 | 0.00 | 90 | 1007.3 |
| 20260507014523 | 61 | 344 | 0.0 | 5.0 | 0.00 | 0.31 | 0.00 | 92 | 1007.3 |
| 20260507013014 | 61 | 349 | 2.0 | 4.0 | 0.00 | 0.31 | 0.00 | 92 | 1007.3 |
| 20260507011513 | 62 | 335 | 1.0 | 5.0 | 0.00 | 0.31 | 0.00 | 91 | 1007.2 |
| 20260507010012 | 62 | 317 | 2.0 | 7.0 | 0.00 | 0.31 | 0.00 | 91 | 1007.4 |
| 20260507004512 | 63 | 360 | 1.0 | 6.0 | 0.00 | 0.31 | 0.00 | 92 | 1007.2 |
| 20260507003005 | 63 | 346 | 2.0 | 7.0 | 0.00 | 0.31 | 0.00 | 94 | 1006.8 |
| 20260507001504 | 64 | 5 | 0.0 | 5.0 | 0.01 | 0.31 | 0.31 | 95 | 1006.9 |
| 20260507000003 | 64 | 344 | 2.0 | 6.0 | 0.06 | 0.31 | 0.31 | 97 | 1006.6 |
| 20260506234500 | 65 | 308 | 0.0 | 0.0 | 0.08 | 0.31 | 0.31 | 96 | 1006.4 |
| 20260506233126 | 65 | 308 | 0.0 | 2.0 | 0.08 | 0.31 | 0.31 | 94 | 1006.2 |
| 20260506231600 | 66 | 308 | 0.0 | 1.0 | 0.07 | 0.30 | 0.30 | 93 | 1006.1 |
| 20260506230100 | 67 | 306 | 1.0 | 2.0 | 0.02 | 0.25 | 0.25 | 88 | 1005.6 |
| 20260506224559 | 68 | 303 | 0.0 | 4.0 | 0.00 | 0.23 | 0.23 | 87 | 1005.6 |
| 20260506223102 | 68 | 226 | 2.0 | 7.0 | 0.00 | 0.23 | 0.23 | 86 | 1005.4 |
| 20260506221558 | 68 | 207 | 3.0 | 6.0 | 0.00 | 0.23 | 0.23 | 85 | 1005.6 |
| 20260506220056 | 69 | 116 | 2.0 | 9.0 | 0.00 | 0.23 | 0.23 | 85 | 1005.4 |
| 20260506214555 | 69 | 136 | 1.0 | 7.0 | 0.00 | 0.23 | 0.23 | 85 | 1005.3 |
| 20260506213110 | 69 | 150 | 2.0 | 8.0 | 0.00 | 0.23 | 0.23 | 83 | 1005.1 |
| 20260506211552 | 69 | 211 | 2.0 | 10.0 | 0.00 | 0.23 | 0.23 | 84 | 1005.1 |
| 20260506210055 | 68 | 222 | 3.0 | 8.0 | 0.00 | 0.23 | 0.23 | 85 | 1005.0 |
| 20260506204553 | 68 | 134 | 3.0 | 7.0 | 0.00 | 0.23 | 0.23 | 85 | 1005.0 |
| 20260506203021 | 69 | 192 | 3.0 | 8.0 | 0.00 | 0.23 | 0.23 | 85 | 1004.5 |
| 20260506201521 | 68 | 146 | 5.0 | 13.0 | 0.00 | 0.23 | 0.23 | 86 | 1005.0 |
| 20260506200018 | 68 | 124 | 2.0 | 7.0 | 0.00 | 0.23 | 0.23 | 87 | 1005.0 |
| 20260506194518 | 67 | 211 | 2.0 | 7.0 | 0.00 | 0.23 | 0.23 | 87 | 1005.0 |
| 20260506193016 | 67 | 150 | 2.0 | 9.0 | 0.00 | 0.23 | 0.23 | 87 | 1005.1 |
| 20260506191516 | 67 | 113 | 3.0 | 10.0 | 0.00 | 0.23 | 0.23 | 87 | 1005.2 |
| 20260506190014 | 67 | 138 | 4.0 | 11.0 | 0.00 | 0.23 | 0.23 | 86 | 1005.5 |